Whiteman AFB, MO

11:10 AM CDT on October 20, 2019 (GMT -0500)
Whiteman Air Force Base

Weather History for KSZL - September, 2019

Change the Weather History Date:

Wednesday, September 18, 2019

  Actual Average Record
Temperature  
Mean Temperature 80 °F -  
Max Temperature 92 °F 76 °F 93 °F (2002)
Min Temperature 69 °F 55 °F 47 °F (2012)
Cooling Degree Days 16    
Growing Degree Days 30 (Base 50)    
Moisture  
Dew Point 71 °F    
Average Humidity 77    
Maximum Humidity 100    
Minimum Humidity 47    
Precipitation  
Precipitation 0.00 in - - ()
Sea Level Pressure  
Sea Level Pressure 29.95 in    
Wind  
Wind Speed 6 mph (SSE)    
Max Wind Speed 13 mph    
Max Gust Speed -    
Visibility 10 miles    
Events      
Averages and records for this station are not official NWS values.
T = Trace of Precipitation, MM = Missing Value Source: NWS Daily Summary

Daily Weather History Graph

Daily Weather History Graph

Search for Another Location

Airport or City:

Astronomy

Sep. 18, 2019 Rise Set
Actual Time 6:58 AM CDT 7:17 PM CDT
Civil Twilight 6:31 AM CDT 7:44 PM CDT
Nautical Twilight 6:00 AM CDT 8:15 PM CDT
Astronomical Twilight 5:28 AM CDT 8:47 PM CDT
Moon 9:55 PM CDT (9/18) 10:59 AM CDT (9/18)
Length of Visible Light 13h 12m
Length of Day
12h 19m
Waning Gibbous, 82% of the Moon is Illuminated
Sep 18
Waning Gibbous
Sep 21
Last Quarter
Sep 28
New
Oct 5
First Quarter
Oct 13
Full

Hourly Weather History & Observations

Time (CDT) Temp. Heat Index Dew Point Humidity Pressure Visibility Wind Dir Wind Speed Gust Speed Precip Events Conditions
12:56 AM 72.3 °F - 72.3 °F 100% 29.94 in 10.0 mi SE 5.8 mph - N/A   Mostly Cloudy
1:56 AM 70.9 °F - 70.9 °F 100% 29.95 in 10.0 mi SE 3.5 mph - N/A   Scattered Clouds
2:56 AM 70.5 °F - 70.5 °F 100% 29.94 in 10.0 mi SSE 5.8 mph - N/A   Scattered Clouds
3:56 AM 70.2 °F - 70.2 °F 100% 29.94 in 10.0 mi SSE 5.8 mph - N/A   Scattered Clouds
5:55 AM 69.6 °F - 69.6 °F 100% 29.95 in 10.0 mi SE 4.6 mph - N/A   Clear
6:56 AM 69.3 °F - 69.3 °F 100% 29.95 in 10.0 mi SSE 4.6 mph - N/A   Scattered Clouds
8:58 AM 75.7 °F - 72.0 °F 88% 29.96 in 10.0 mi South 8.1 mph - N/A   Partly Cloudy
9:56 AM 82.4 °F 86.5 °F 70.3 °F 67% 29.97 in 10.0 mi SSW 12.7 mph - N/A   Partly Cloudy
10:56 AM 85.3 °F 90.8 °F 71.2 °F 63% 29.96 in 10.0 mi SSW 11.5 mph - N/A   Clear
11:56 AM 88.3 °F 94.5 °F 71.6 °F 57% 29.98 in 10.0 mi SSW 8.1 mph - N/A   Clear
12:56 PM 89.4 °F 96.8 °F 72.1 °F 57% 29.98 in 10.0 mi SSW 10.4 mph - N/A   Partly Cloudy
1:56 PM 90.7 °F 95.9 °F 69.4 °F 50% 29.96 in 10.0 mi SSW 9.2 mph - N/A   Partly Cloudy
2:56 PM 92.1 °F 97.2 °F 69.4 °F 47% 29.95 in 10.0 mi SW 11.5 mph - N/A   Scattered Clouds
3:56 PM 91.0 °F 96.6 °F 69.8 °F 50% 29.94 in 10.0 mi South 10.4 mph - N/A   Partly Cloudy
5:04 PM 90.0 °F 95.4 °F 70.0 °F 52% 29.91 in 10.0 mi SE 6.9 mph - N/A   Partly Cloudy
5:56 PM 87.4 °F 94.0 °F 71.8 °F 60% 29.92 in 10.0 mi South 4.6 mph - N/A   Partly Cloudy
6:56 PM 84.2 °F 90.6 °F 72.9 °F 69% 29.92 in 10.0 mi SSE 4.6 mph - N/A   Partly Cloudy
7:56 PM 80.2 °F 84.2 °F 72.0 °F 76% 29.94 in 10.0 mi ESE 4.6 mph - N/A   Partly Cloudy
8:56 PM 78.6 °F - 70.3 °F 76% 29.96 in 10.0 mi ESE 4.6 mph - N/A   Clear
9:56 PM 76.5 °F - 72.5 °F 87% 29.97 in 10.0 mi ESE 4.6 mph - N/A   Clear
10:56 PM 75.9 °F - 73.4 °F 92% 29.96 in 10.0 mi ESE 4.6 mph - N/A   Clear
11:56 PM 75.0 °F - 73.0 °F 94% 29.94 in 10.0 mi SSE 3.5 mph - N/A   Clear